Погода в Тьерпе

Швеция     60°20′36″N   17°30′53″E
темп.,
°C
ветер,
м/с
пор.,
м/с
влажн.,
%
обл.,
%
осадки,
мм/ч
давл.,
гПа
погр.,
м
10 августа, ср
ср1023:00+15юз2877100 0.0 1025179
02:00+14юз21080100 0.0 1025241
05:00+13ююз31081100 0.0 1024281
08:00+17юз41071100 0.0 1024437
11:00+19юз486198 0.0 1023653
14:00+25юз4744100 0.0 10221558
17:00+27юз4640100 0.0 10201959
20:00+22юз4954100 0.0 1020663
11 августа, чт
чт1123:00+19юз41265100 0.0 1019461
02:00+16юз4137555 0.0 1018467
05:00+15юз4138262 0.0 1018447
08:00+18юз487296 0.0 1018440
11:00+24зюз4646100 0.0 1018933
14:00+28з35315 0.0 10171706
17:00+29зюз363093 0.0 10172249
20:00+21всв256150 0.0 1017148
12 августа, пт
пт1223:00+16зсз11830 0.0 101830
02:00+15зюз22820 0.0 101946
05:00+14зюз25830 0.0 1019104
08:00+19сз23634 0.0 1020368
11:00+22ссв545828 0.0 10221015
14:00+21св33510 0.0 10221046
17:00+21св33460 0.0 10221006
20:00+17всв36650 0.0 1023348
13 августа, сб
сб1323:00+12вюв25910 0.0 1023119
02:00+12юв25910 0.0 1022115
05:00+11ююв24952 0.0 102177
08:00+18ю25755 0.0 1020323
11:00+25юз35405 0.0 10191033
14:00+29юз462841 0.0 10171835
17:00+29юз463072 0.0 10162127
20:00+23юз2648100 0.0 1016119
14 августа, вс
вс1423:00+18ююз255873 0.0 101681
02:00+15зюз22657 0.0 101638
05:00+14зюз117246 0.0 101612
08:00+19ссз236118 0.0 1016280
11:00+25сз12455 0.0 1016922
14:00+28с23349 0.0 10151808
17:00+22ссв556157 0.0 1015488
20:00+17св378284 0.0 1015272